This demonstration page uses our WeatherBlox Daily Observations layout. Learn more.

Left ArrowRight Arrow

Hourly Observations for May 14, 2015

Temp ( °F °C ) Dew Point ( °F °C ) Humidity (%) Winds ( mph kmh ) Pressure ( in mb ) Visibility ( mi km ) Precip ( " mm )
12:53 am 00:53 Cloudy 58 14.4 41 5 53 53 Calm 29.83 1010 10 16 0.00 0.00
1:53 am 01:53 Cloudy with Light Rain 58 14.4 42 5.6 56 56 N 3 6 29.83 1010 10 16 0.00 0.03
2:53 am 02:53 Cloudy 57 13.9 43 6.1 60 60 NNE 5 7 29.83 1010 10 16 0.00 0.03
3:53 am 03:53 Cloudy 57 13.9 46 7.8 67 67 WNW 3 6 29.83 1010 10 16 0.00 0.00
4:53 am 04:53 Cloudy 55 12.8 48 8.9 77 77 NNE 7 11 29.83 1010 10 16 0.00 0.00
5:53 am 05:53 Mostly Clear 54 12.2 46 7.8 75 75 N 3 6 29.83 1010 10 16 0.00 0.00
6:53 am 06:53 Sunny 54 12.2 47 8.3 77 77 Calm 29.83 1010 10 16 0.00 0.00
7:53 am 07:53 Sunny 56 13.3 48 8.9 75 75 NE 5 7 29.84 1010 10 16 0.00 0.00
8:53 am 08:53 Mostly Sunny 60 15.6 46 7.8 60 60 WNW 6 9 29.84 1010 10 16 0.00 0.00
9:53 am 09:53 Sunny 62 16.7 45 7.2 54 54 VRB 5 7 29.83 1010 10 16 0.00 0.00
10:53 am 10:53 Sunny 64 17.8 40 4.4 41 41 VRB 5 7 29.80 1009 10 16 0.00 0.00
11:53 am 11:53 Sunny 65 18.3 39 3.9 39 39 NNW 5 7 29.79 1009 10 16 0.00 0.00
12:53 pm 12:53 Mostly Sunny 68 20 36 2.2 31 31 VRB 7 11 29.77 1008 10 16 0.00 0.00
1:53 pm 13:53 Sunny 71 21.7 35 1.7 27 27 undefined N/A 29.74 1007 10 16 0.00 0.00
2:53 pm 14:53 Sunny 72 22.2 36 2.2 27 27 W 8 13 29.71 1006 10 16 0.00 0.00
3:53 pm 15:53 Sunny 74 23.3 35 1.7 24 24 SW 8 13 29.69 1005 10 16 0.00 0.00
4:53 pm 16:53 Sunny 71 21.7 35 1.7 27 27 SE 7 11 29.68 1005 10 16 0.00 0.00
5:53 pm 17:53 Sunny 71 21.7 35 1.7 27 27 S 8 13 29.68 1005 10 16 0.00 0.00
6:53 pm 18:53 Sunny 71 21.7 35 1.7 27 27 WNW 3 6 29.67 1005 10 16 0.00 0.00
7:53 pm 19:53 Sunny 68 20 37 2.8 32 32 SSE 3 6 29.69 1005 10 16 0.00 0.00
8:53 pm 20:53 Cloudy 67 19.4 38 3.3 35 35 NNW 6 9 29.71 1006 10 16 0.00 0.00
9:53 pm 21:53 Clear 65 18.3 40 4.4 40 40 VRB 3 6 29.72 1006 10 16 0.00 0.00
10:53 pm 22:53 Mostly Clear 62 16.7 41 5 46 46 SW 3 6 29.74 1007 10 16 0.00 0.00
11:53 pm 23:53 Partly Cloudy 60 15.6 42 5.6 52 52 SSE 12 19 29.76 1008 10 16 0.00 0.00

Powered by AerisWeather